Flight Track Log - Related Links

Times and Time Zones

All times are in EDT time to prevent confusion due to time zone crossing. See the USC105 flight status page for this flight to view local times or setup timezone preferences in your user account.

Time Position Orientation Groundspeed Altitude Reporting Facility
EDT Latitude Longitude Course Direction KTS MPH feet Rate Location/Type
Wed 06:54:50 AM 42.2414 -83.5572 275° West 103 119 2,000  Level FAA TRACON SMA TRACON (SMA)
Wed 06:55:11 AM 42.2381 -83.5703 251° West 146 168 2,300 1,171 Climbing FAA TRACON SMA TRACON (SMA)
Wed 06:55:31 AM 42.2261 -83.5831 218° Southwest 150 173 2,800 1,385 Climbing FAA TRACON SMA TRACON (SMA)
Wed 06:55:50 AM 42.2183 -83.5906 216° Southwest 140 161 3,200 1,350 Climbing FAA TRACON SMA TRACON (SMA)
Wed 06:56:11 AM 42.2089 -83.6039 226° Southwest 133 153 3,700 1,500 Climbing FAA TRACON SMA TRACON (SMA)
Wed 06:56:30 AM 42.2008 -83.6136 222° Southwest 126 145 4,200 1,500 Climbing FAA TRACON SMA TRACON (SMA)
Wed 06:56:51 AM 42.1911 -83.6242 219° Southwest 121 139 4,700 1,171 Climbing FAA TRACON SMA TRACON (SMA)
Wed 06:57:11 AM 42.1828 -83.6317 214° Southwest 118 136 5,000 450 Climbing FAA TRACON SMA TRACON (SMA)
Wed 06:57:31 AM 42.1700 -83.6419 211° Southwest 146 168 5,000  Level FAA TRACON SMA TRACON (SMA)
Wed 06:57:51 AM 42.1594 -83.6528 217° Southwest 157 181 5,000  Level FAA TRACON SMA TRACON (SMA)
Wed 06:58:11 AM 42.1483 -83.6656 220° Southwest 168 193 5,000  Level FAA TRACON SMA TRACON (SMA)
Wed 06:58:31 AM 42.1322 -83.6772 208° Southwest 171 197 5,000  Level FAA TRACON SMA TRACON (SMA)
Wed 06:58:51 AM 42.1183 -83.6836 199° South 178 205 5,000  Level FAA TRACON SMA TRACON (SMA)
Wed 06:59:10 AM 42.1044 -83.6897 198° South 173 199 5,000  Level FAA TRACON SMA TRACON (SMA)
Wed 06:59:31 AM 42.0867 -83.6969 197° South 172 198 5,000  Level FAA TRACON SMA TRACON (SMA)
Wed 06:59:51 AM 42.0722 -83.7025 196° South 173 199 5,000 -150 Level FAA TRACON SMA TRACON (SMA)
Wed 07:00:11 AM 42.0581 -83.7083 197° South 173 199 4,900  Descending FAA TRACON SMA TRACON (SMA)
Wed 07:00:31 AM 42.0403 -83.7153 196° South 173 199 5,000  Climbing FAA TRACON SMA TRACON (SMA)
Wed 07:00:51 AM 42.0261 -83.7211 197° South 172 198 4,900  Descending FAA TRACON SMA TRACON (SMA)
Wed 07:01:10 AM 42.0122 -83.7275 199° South 172 198 5,000 150 Climbing FAA TRACON SMA TRACON (SMA)
Wed 07:01:31 AM 41.9944 -83.7306 187° South 171 197 5,000 -146 Level FAA TRACON SMA TRACON (SMA)
Wed 07:01:51 AM 41.9794 -83.7261 168° South 174 200 4,900 -150 Descending FAA TRACON SMA TRACON (SMA)
Wed 07:02:11 AM 41.9644 -83.7203 164° South 176 203 4,900 150 Level FAA TRACON SMA TRACON (SMA)
Wed 07:02:31 AM 41.9467 -83.7133 164° South 178 205 5,000  Climbing FAA TRACON SMA TRACON (SMA)
Wed 07:02:50 AM 41.9325 -83.7078 164° South 175 201 4,900 -150 Descending FAA TRACON SMA TRACON (SMA)
Wed 07:03:11 AM 41.9175 -83.7019 164° South 174 200 4,900  Level FAA TRACON SMA TRACON (SMA)
Wed 07:03:31 AM 41.9006 -83.6950 163° South 173 199 4,900  Level FAA TRACON SMA TRACON (SMA)
Wed 07:03:51 AM 41.8869 -83.6892 162° South 173 199 4,900  Level FAA TRACON SMA TRACON (SMA)
Wed 07:04:11 AM 41.8694 -83.6817 162° South 172 198 4,900 154 Level FAA TRACON SMA TRACON (SMA)
Wed 07:04:30 AM 41.8567 -83.6758 161° South 171 197 5,000 600 Climbing FAA TRACON SMA TRACON (SMA)
Wed 07:04:51 AM 41.8419 -83.6678 158° South 187 215 5,300 732 Climbing FAA TRACON SMA TRACON (SMA)
Wed 07:05:11 AM 41.8297 -83.6622 161° South 171 197 5,500 450 Climbing FAA TRACON SMA TRACON (SMA)
Wed 07:05:31 AM 41.8133 -83.6572 167° South 156 180 5,600 300 Climbing FAA TRACON SMA TRACON (SMA)
Wed 07:05:51 AM 41.7997 -83.6536 169° South 162 186 5,700 308 Climbing FAA TRACON SMA TRACON (SMA)
Wed 07:06:10 AM 41.7858 -83.6508 172° South 157 181 5,800 300 Climbing FAA TRACON SMA TRACON (SMA)
Wed 07:06:31 AM 41.7681 -83.6444 165° South 170 196 5,900 293 Climbing FAA TRACON SMA TRACON (SMA)
Wed 07:06:51 AM 41.7542 -83.6419 172° South 165 190 6,000 308 Climbing FAA TRACON SMA TRACON (SMA)
Wed 07:07:10 AM 41.7403 -83.6378 167° South 167 192 6,100 450 Climbing FAA TRACON SMA TRACON (SMA)
Wed 07:07:31 AM 41.7228 -83.6325 167° South 167 192 6,300 439 Climbing FAA TRACON SMA TRACON (SMA)
Wed 07:07:51 AM 41.7086 -83.6275 165° South 169 194 6,400 300 Climbing FAA TRACON SMA TRACON (SMA)
Wed 07:08:11 AM 41.6947 -83.6219 163° South 169 194 6,500 450 Climbing FAA TRACON SMA TRACON (SMA)
Wed 07:08:31 AM 41.6772 -83.6153 164° South 169 194 6,700 439 Climbing FAA TRACON SMA TRACON (SMA)
Wed 07:08:52 AM 41.6636 -83.6097 163° South 168 193 6,800 300 Climbing FAA TRACON SMA TRACON (SMA)
Wed 07:09:11 AM 41.6497 -83.6036 162° South 168 193 6,900 300 Climbing FAA TRACON SMA TRACON (SMA)
Wed 07:09:32 AM 41.6322 -83.5967 163° South 170 196 7,000 150 Climbing FAA TRACON SMA TRACON (SMA)
Wed 07:09:51 AM 41.6178 -83.5911 164° South 172 198 7,000  Level FAA TRACON SMA TRACON (SMA)
Wed 07:10:11 AM 41.6028 -83.5858 165° South 179 206 7,000  Level FAA TRACON SMA TRACON (SMA)
Wed 07:10:31 AM 41.5836 -83.5783 164° South 183 211 7,000  Level FAA TRACON SMA TRACON (SMA)
Wed 07:10:51 AM 41.5683 -83.5736 167° South 181 208 7,000  Level FAA TRACON SMA TRACON (SMA)
Wed 07:11:11 AM 41.5542 -83.5692 167° South 177 204 7,000  Level FAA TRACON SMA TRACON (SMA)
Wed 07:11:32 AM 41.5364 -83.5606 160° South 177 204 7,000  Level FAA TRACON SMA TRACON (SMA)
Wed 07:11:52 AM 41.5219 -83.5539 161° South 177 204 7,000  Level FAA TRACON SMA TRACON (SMA)
Wed 07:12:12 AM 41.5075 -83.5483 164° South 176 203 7,000  Level FAA TRACON SMA TRACON (SMA)
Wed 07:12:32 AM 41.4897 -83.5417 164° South 175 201 7,000  Level FAA TRACON SMA TRACON (SMA)
Wed 07:12:52 AM 41.4753 -83.5367 165° South 172 198 7,000  Level FAA TRACON SMA TRACON (SMA)
Wed 07:13:12 AM 41.4611 -83.5319 166° South 172 198 7,000  Level FAA TRACON SMA TRACON (SMA)
Wed 07:13:32 AM 41.4433 -83.5244 162° South 173 199 7,000  Level FAA TRACON SMA TRACON (SMA)
Wed 07:13:51 AM 41.4294 -83.5183 162° South 172 198 7,000  Level FAA TRACON SMA TRACON (SMA)
Wed 07:14:12 AM 41.4156 -83.5136 166° South 169 194 7,000  Level FAA TRACON SMA TRACON (SMA)
Wed 07:14:32 AM 41.3983 -83.5064 163° South 169 194 7,000  Level FAA TRACON SMA TRACON (SMA)
Wed 07:14:52 AM 41.3842 -83.5008 164° South 169 194 7,000  Level FAA TRACON SMA TRACON (SMA)
Wed 07:15:12 AM 41.3700 -83.4964 167° South 170 196 7,000  Level FAA TRACON SMA TRACON (SMA)
Wed 07:15:31 AM 41.3522 -83.4903 166° South 171 197 7,000  Level FAA TRACON SMA TRACON (SMA)
Wed 07:15:51 AM 41.3414 -83.4853 161° South 172 198 7,000  Level FAA TRACON SMA TRACON (SMA)
Wed 07:16:31 AM 41.3414 -83.4853 124° Southeast 172 198 7,000  Level FAA TRACON SMA TRACON (SMA)
Wed 07:18:00 AM 41.2854 -83.4644 164° South  Level Estimated
Wed 07:25:00 AM 41.0214 -83.3663 164° South  Level Estimated
Wed 07:26:00 AM 40.9836 -83.3523 164° South  Level Estimated
Wed 07:27:00 AM 40.9459 -83.3384 164° South  Level Estimated
Wed 07:28:00 AM 40.9082 -83.3245 164° South  Level Estimated
Wed 07:29:00 AM 40.8704 -83.3106 164° South  Level Estimated
Wed 07:30:00 AM 40.8327 -83.2967 164° South  Level Estimated
Wed 07:31:00 AM 40.7950 -83.2828 164° South  Level Estimated
Wed 07:32:00 AM 40.7572 -83.2690 164° South  Level Estimated
Wed 07:33:00 AM 40.7195 -83.2551 164° South  Level Estimated
Wed 07:34:00 AM 40.6817 -83.2413 164° South  Level Estimated
Wed 07:35:00 AM 40.6440 -83.2275 164° South  Level Estimated
Wed 07:35:26 AM 40.4269 -83.1314 165° South 197 227 7,000  Level Indianapolis Center
Wed 07:36:00 AM 40.6062 -83.2137 164° South  Level Estimated
Wed 07:36:27 AM 40.3936 -83.0700 125° Southeast 221 254 7,000  Level Indianapolis Center
Wed 07:37:00 AM 40.5685 -83.1999 165° South  Level Estimated
Wed 07:37:28 AM 40.3600 -83.0086 126° Southeast 204 235 7,000  Level Indianapolis Center
Wed 07:38:00 AM 40.5307 -83.1862 165° South  Level Estimated
Wed 07:38:40 AM 40.3258 -82.9253 118° Southeast 209 241 7,000  Level Indianapolis Center
Wed 07:39:00 AM 40.4930 -83.1724 165° South  Level Estimated
Wed 07:39:35 AM 40.3044 -82.8708 117° Southeast 206 237 7,000  Level Indianapolis Center
Wed 07:40:00 AM 40.4552 -83.1587 165° South  Level Estimated
Wed 07:40:36 AM 40.2589 -82.8303 146° Southeast 188 216 6,400  Level Indianapolis Center
Wed 07:41:28 AM 40.2164 -82.8050 156° South 191 220 5,900 -699 Descending Indianapolis Center
Wed 07:42:19 AM 40.1761 -82.7881 162° South 183 211 5,200 -927 Descending Indianapolis Center
Wed 07:43:31 AM 40.1161 -82.7889 181° South 184 212 4,000 -541 Descending Indianapolis Center
Wed 07:44:32 AM 40.0719 -82.7850 176° South 173 199 4,000  Level Indianapolis Center
Wed 07:45:33 AM 40.0331 -82.7839 179° South 155 178 4,000  Level Indianapolis Center
Wed 07:46:28 AM 40.0006 -82.7819 177° South 131 151 4,000 -55 Level Indianapolis Center
Wed 07:47:22 AM 39.9675 -82.7783 175° South 128 147 3,900 -397 Descending Indianapolis Center
Wed 07:48:29 AM 39.9306 -82.7986 203° Southwest 127 146 3,200 -526 Descending Indianapolis Center
Wed 07:49:39 AM 39.9014 -82.8250 215° Southwest 126 145 2,700 -496 Descending Indianapolis Center
Wed 07:50:30 AM 39.8767 -82.8525 220° Southwest 119 137 2,200 -536 Descending Indianapolis Center
Wed 07:51:31 AM 39.8517 -82.8822 222° Southwest 127 146 1,700 -621 Descending Indianapolis Center
Wed 07:52:26 AM 39.8311 -82.9069 223° Southwest 112 129 1,000 -575 Descending Indianapolis Center
Wed 07:52:44 AM 39.8250 -82.9142 222° Southwest 117 135 1,000  Level Indianapolis Center

Login

Don't have an account? Register now (free) for customized features, flight alerts, and more!